This is the latest recevied weather packets stored in our database for station/object OK1FET-4. If no packets are shown the sender has not sent any weather packets the latest 1 day(s).
| Time | Temp. | Humidity | Pressure | Rain* | Wind** | Luminosity | Snow |
|---|---|---|---|---|---|---|---|
| 1778077758 | 18.33° C | 61% | 1005.7 hPa | - | - | - | - |
| 1778077758 | 18.33° C | 61% | 1005.7 hPa | - | - | - | - |
| 1778076554 | 20.56° C | 53% | 1005.8 hPa | - | - | - | - |
| 1778076253 | 21.11° C | 52% | 1005.7 hPa | - | - | - | - |
| 1778076253 | 21.11° C | 52% | 1005.7 hPa | - | - | - | - |
| 1778076253 | 21.11° C | 52% | 1005.7 hPa | - | - | - | - |
| 1778075952 | 21.67° C | 52% | 1005.8 hPa | - | - | - | - |
| 1778075952 | 21.67° C | 52% | 1005.8 hPa | - | - | - | - |
| 1778075952 | 21.67° C | 52% | 1005.8 hPa | - | - | - | - |
| 1778075048 | 22.22° C | 51% | 1005.9 hPa | - | - | - | - |
| 1778075048 | 22.22° C | 51% | 1005.9 hPa | - | - | - | - |
| 1778073842 | 25.56° C | 55% | 1006 hPa | - | - | - | - |
| 1778073540 | 25.56° C | 51% | 1006 hPa | - | - | - | - |
| 1778073540 | 25.56° C | 51% | 1006 hPa | - | - | - | - |
| 1778072333 | 26.11° C | 57% | 1006.3 hPa | - | - | - | - |
| 1778072031 | 26.11° C | 57% | 1006.4 hPa | - | - | - | - |
| 1778072031 | 26.11° C | 57% | 1006.4 hPa | - | - | - | - |
| 1778072031 | 26.11° C | 57% | 1006.4 hPa | - | - | - | - |
| 1778071729 | 27.22° C | 58% | 1006.4 hPa | - | - | - | - |
| 1778071729 | 27.22° C | 58% | 1006.4 hPa | - | - | - | - |
| 1778071729 | 27.22° C | 58% | 1006.4 hPa | - | - | - | - |
| 1778071427 | 26.67° C | 57% | 1006.4 hPa | - | - | - | - |
| 1778071427 | 26.67° C | 57% | 1006.4 hPa | - | - | - | - |
| 1778071125 | 25° C | 56% | 1006.5 hPa | - | - | - | - |
| 1778071125 | 25° C | 56% | 1006.5 hPa | - | - | - | - |
* Rain since midnight (hover to see other rain measurements)
** Current wind speed in m/s (hover to see current wind gust speed)